Preview of NWS' New Version of Forecast
This preview is not operational and should not be used for support decisions.

Regional Weather Roundup (RWR)

Issued by National Weather Service (NWS)

                            
000
ASUS44 KMEG 192200
RWRTN 
TENNESSEE HOURLY STATE WEATHER ROUNDUP
NATIONAL WEATHER SERVICE MEMPHIS TN
400 PM CST TUE FEB 19 2019

TNZ002-004-019-021-049-052-054-088>092-192300-
WEST TENNESSEE
  
CITY           SKY/WX    TMP DP  RH WIND       PRES   REMARKS
MEMPHIS INTL   LGT RAIN  38  37  97 NE8       30.15R FOG     WCI  32  
JACKSON        LGT RAIN  35  34  96 E14       30.20F FOG     WCI  26  
DYERSBURG      LGT RAIN  35  32  88 NE12      30.23R FOG     WCI  27  
$$

TNZ008-025-027-028-033-062-065-066-192300-
NORTH MIDDLE TENNESSEE
  
CITY           SKY/WX    TMP DP  RH WIND       PRES   REMARKS
NASHVILLE      RAIN      37  32  82 E7        30.36F FOG     WCI  32  
CLARKSVILLE    CLOUDY    38  27  64 E12       30.31F WCI  30          
SMYRNA         RAIN      37  34  89 NE6       30.35F FOG     WCI  32  
CROSSVILLE     LGT RAIN  33  27  78 E7        30.34F WCI  27          
$$

TNZ061-075-076-078-094-096-097-192300-
SOUTH MIDDLE TENNESSEE
  
CITY           SKY/WX    TMP DP  RH WIND       PRES   REMARKS
$$

TNZ017-018-042-046-047-192300-
NORTHEAST TENNESSEE
  
CITY           SKY/WX    TMP DP  RH WIND       PRES   REMARKS
TRI CITIES     CLOUDY    45  30  55 CALM      30.40R                  
$$

TNZ012-013-036-069-073-074-192300-
CENTRAL EAST TENNESSEE
  
CITY           SKY/WX    TMP DP  RH WIND       PRES   REMARKS
KNOXVILLE      LGT RAIN  39  30  70 NE6       30.42R WCI  35          
OAK RIDGE      LGT RAIN  38  33  82 NE3       30.42F                  
$$

TNZ083-085-099-192300-
SOUTHEAST TENNESSEE
  
CITY           SKY/WX    TMP DP  RH WIND       PRES   REMARKS
CHATTANOOGA    RAIN      37  36  96 N7        30.36F FOG     WCI  32  
$$

SKY/WX REPORTED AS FAIR MEANS FEW OR NO CLOUDS BELOW
12 THOUSAND FEET.